Beaver, WV

8:41 PM EST on January 23, 2017 (GMT -0500)
Raleigh County Memorial

Weather History for KBKW - September, 2012

Change the Weather History Date:

Monday, September 24, 2012

  Actual Average Record
Temperature  
Mean Temperature 50 °F 60 °F  
Max Temperature 63 °F 70 °F 89 °F (1930)
Min Temperature 37 °F 50 °F 29 °F (1952)
Degree Days  
Heating Degree Days 15 6  
Month to date heating degree days 79 72  
Since 1 July heating degree days 82 93  
Cooling Degree Days 0 1  
Month to date cooling degree days 75 53  
Year to date cooling degree days 758 546  
Moisture  
Dew Point 36 °F    
Average Humidity 63    
Maximum Humidity 92    
Minimum Humidity 34    
Precipitation  
Precipitation 0.00 in 0.09 in 1.34 in (1988)
Month to date precipitation 4.02 2.44  
Year to date precipitation 34.73 32.10  
Snow  
Snow 0.00 in - - ()
Month to date snowfall 0.0  
Since 1 September snowfall 0.0  
Snow Depth 0.00 in    
Sea Level Pressure  
Sea Level Pressure 30.23 in    
Wind  
Wind Speed 4 mph (SSE)    
Max Wind Speed 10 mph    
Max Gust Speed 15 mph    
Visibility 10 miles    
Events      
T = Trace of Precipitation, MM = Missing Value Source: NWS Daily Summary

Daily Weather History Graph

Daily Weather History Graph

Search for Another Location

Airport or City:

Trip Planner

Search our weather history database for the weather conditions in past years. The results will help you decide how hot, cold, wet, or windy it might be!

Date:

Astronomy

Sep. 24, 2012 Rise Set
Actual Time 7:14 AM EDT 7:17 PM EDT
Civil Twilight 6:48 AM EDT 7:43 PM EDT
Nautical Twilight 6:17 AM EDT 8:14 PM EDT
Astronomical Twilight 5:46 AM EDT 8:45 PM EDT
Moon 3:57 PM EDT 1:34 AM EDT
Length of Visible Light 12h 55m
Length of Day
12h 03m
Waxing Gibbous, 70% of the Moon is Illuminated
Sep 24
Waxing Gibbous
Sep 29
Full
Oct 8
Last Quarter
Oct 15
New
Oct 21
First Quarter

Hourly Weather History & Observations

Time (EDT) Temp. Windchill Dew Point Humidity Pressure Visibility Wind Dir Wind Speed Gust Speed Precip Events Conditions
12:51 AM 42.1 °F - 36.0 °F 79% 30.24 in 10.0 mi Calm Calm - N/A   Clear
1:51 AM 41.0 °F 39.0 °F 36.0 °F 82% 30.24 in 10.0 mi SSE 3.5 mph - N/A   Clear
2:51 AM 39.0 °F 36.8 °F 35.1 °F 86% 30.23 in 10.0 mi South 3.5 mph - N/A   Clear
3:51 AM 37.9 °F - 35.1 °F 89% 30.23 in 10.0 mi Calm Calm - N/A   Clear
4:51 AM 37.0 °F 34.5 °F 34.0 °F 89% 30.25 in 10.0 mi South 3.5 mph - N/A   Clear
5:51 AM 37.9 °F 35.5 °F 34.0 °F 86% 30.26 in 10.0 mi SSE 3.5 mph - N/A   Clear
6:51 AM 37.9 °F - 35.1 °F 89% 30.27 in 10.0 mi Calm Calm - N/A   Clear
7:51 AM 37.9 °F 35.5 °F 34.0 °F 86% 30.30 in 10.0 mi SSE 3.5 mph - N/A   Clear
8:51 AM 45.0 °F - 37.9 °F 76% 30.31 in 10.0 mi Calm Calm - N/A   Clear
9:51 AM 51.1 °F - 36.0 °F 56% 30.30 in 10.0 mi North 4.6 mph - N/A   Clear
10:51 AM 52.0 °F - 33.1 °F 49% 30.30 in 10.0 mi NE 8.1 mph - N/A   Clear
11:51 AM 54.0 °F - 32.0 °F 43% 30.29 in 10.0 mi NNW 5.8 mph - N/A   Clear
12:51 PM 55.0 °F - 36.0 °F 49% 30.27 in 10.0 mi Calm Calm - N/A   Clear
1:51 PM 59.0 °F - 36.0 °F 42% 30.24 in 10.0 mi Variable 3.5 mph - N/A   Clear
2:51 PM 61.0 °F - 35.1 °F 38% 30.22 in 10.0 mi NNW 5.8 mph - N/A   Clear
3:51 PM 62.1 °F - 35.1 °F 37% 30.19 in 10.0 mi Variable 3.5 mph - N/A   Clear
4:51 PM 62.1 °F - 34.0 °F 35% 30.18 in 10.0 mi Calm Calm - N/A   Clear
5:51 PM 62.1 °F - 35.1 °F 37% 30.17 in 10.0 mi WSW 5.8 mph - N/A   Clear
6:51 PM 57.9 °F - 36.0 °F 44% 30.18 in 10.0 mi WSW 6.9 mph - N/A   Clear
7:51 PM 51.1 °F - 39.0 °F 63% 30.19 in 10.0 mi Calm Calm - N/A   Clear
8:51 PM 51.1 °F - 39.0 °F 63% 30.18 in 10.0 mi SSE 5.8 mph - N/A   Clear
9:51 PM 48.0 °F - 37.0 °F 66% 30.18 in 10.0 mi SE 4.6 mph - N/A   Clear
10:51 PM 48.9 °F - 37.0 °F 64% 30.17 in 10.0 mi SSE 5.8 mph - N/A   Clear
11:51 PM 50.0 °F - 37.0 °F 61% 30.17 in 10.0 mi SSE 8.1 mph - N/A   Clear